This is the latest recevied weather packets stored in our database for station/object KY0TEQ-13. If no packets are shown the sender has not sent any weather packets the latest 10 day(s).
| Time | Temp. | Humidity | Pressure | Rain* | Wind** | Luminosity | Snow |
|---|---|---|---|---|---|---|---|
| 1788433049 | 9.44° C | 76% | 1308.5 hPa | 0 mm | - | 0 W/m² | - |
| 1788432744 | 10.56° C | 74% | 1308.5 hPa | 0 mm | - | 0 W/m² | - |
| 1788432443 | 11.11° C | 74% | 1308.4 hPa | 0 mm | - | 0 W/m² | - |
| 1788432139 | 10.56° C | 75% | 1308.5 hPa | 0 mm | - | 0 W/m² | - |
| 1788431834 | 10.56° C | 74% | 1308.6 hPa | 0 mm | - | 0 W/m² | - |
| 1788431531 | 10° C | 76% | 1308.4 hPa | 0 mm | - | 0 W/m² | - |
| 1788431226 | 10.56° C | 75% | 1308.5 hPa | 0 mm | - | 0 W/m² | - |
| 1788430920 | 10.56° C | 75% | 1308.5 hPa | 0 mm | - | 0 W/m² | - |
| 1788430619 | 10.56° C | 75% | 1308.4 hPa | 0 mm | - | 0 W/m² | - |
| 1788430314 | 11.11° C | 73% | 1308.6 hPa | 0 mm | - | 0 W/m² | - |
| 1788430009 | 11.11° C | 72% | 1308.6 hPa | 0 mm | - | 0 W/m² | - |
| 1788429709 | 11.67° C | 70% | 1308.4 hPa | 0 mm | - | 0 W/m² | - |
| 1788429406 | 11.67° C | 71% | 1308.8 hPa | 0 mm | - | 0 W/m² | - |
| 1788429101 | 11.67° C | 71% | 1308.8 hPa | 0 mm | - | 0 W/m² | - |
| 1788428796 | 11.67° C | 71% | 1308.8 hPa | 0 mm | - | 0 W/m² | - |
| 1788428491 | 11.67° C | 71% | 1308.6 hPa | 0 mm | - | 0 W/m² | - |
| 1788428186 | 11.67° C | 71% | 1308.8 hPa | 0 mm | - | 0 W/m² | - |
| 1788427882 | 12.22° C | 69% | 1308.6 hPa | 0 mm | - | 0 W/m² | - |
| 1788427581 | 12.22° C | 69% | 1308.6 hPa | 0 mm | - | 0 W/m² | - |
| 1788427276 | 12.22° C | 69% | 1308.8 hPa | 0 mm | - | 0 W/m² | - |
| 1788426974 | 12.22° C | 69% | 1308.6 hPa | 0 mm | - | 0 W/m² | - |
| 1788426669 | 12.78° C | 67% | 1308.5 hPa | 0 mm | - | 0 W/m² | - |
| 1788426365 | 12.78° C | 66% | 1308.4 hPa | 0 mm | - | 0 W/m² | - |
| 1788426063 | 12.78° C | 66% | 1308.4 hPa | 0 mm | - | 0 W/m² | - |
| 1788425762 | 12.22° C | 69% | 1308.4 hPa | 0 mm | - | 0 W/m² | - |
* Rain latest hour (hover to see other rain measurements)
** Current wind speed in m/s (hover to see current wind gust speed)